#timestamp,LO_Frequency,Hit,StdDev 
1511892015.9,286047001.2,N
1511892035.7,286047000.0,N
1511892055.5,286046999.8,N
1511892075.4,286047002.3,N
1511892095.2,286047000.4,N
1511892115.0,286047000.4,N
1511892115.9,286047000.4,N
1511892135.8,286046999.7,N
1511892155.6,286047000.5,N
1511892175.5,286047000.7,N
1511892195.3,286047000.0,N
1511892215.1,286047002.6,N
1511892235.9,286047002.3,N
1511892255.7,286047002.3,N
1511892275.6,286047000.5,N
1511892295.4,286046998.2,N
1511892315.2,286046999.8,N
1511892335.1,286047000.1,N
1511892336.0,286047000.1,N
1511892355.8,286047001.0,N
1511892375.6,286046999.7,N
1511892395.5,286046999.7,N
1511892415.3,286047000.3,N
1511892435.2,286047000.1,N
1511892455.0,286047000.3,N
1511892455.9,286047000.3,N
1511892475.8,286046999.8,N
1511892495.6,286047000.1,N
1511892515.4,286047001.1,N
1511892535.3,286046998.6,N
1511892555.1,286046998.3,N
1511892575.8,286047000.5,N
1511892595.7,286047002.0,N
1511892615.5,286047002.1,N
1511892635.4,286047001.8,N
1511892655.2,286047002.7,N
1511892675.0,286047002.6,N
1511892675.9,286047002.6,N
1511892695.8,286047001.7,N
1511892715.6,286047002.8,N
1511892735.4,286046999.7,N
1511892755.3,286047001.1,N
1511892775.1,286047001.1,N
1511892795.9,286046999.2,N
1511892815.7,286046998.7,N
1511892835.6,286046999.2,N
1511892855.4,286046996.6,N
1511892875.2,286046996.5,N
1511892895.1,286046998.5,N
1511892896.0,286046998.5,N
1511892915.8,286046998.8,N
1511892935.6,286046998.1,N
1511892955.5,286047000.5,N
1511892975.3,286047000.5,N
1511892995.2,286047000.6,N
1511893015.9,286047000.0,N
1511893035.7,286047002.4,N
1511893055.6,286047001.2,N
1511893075.4,286046998.1,N
1511893095.2,286047000.3,N
1511893115.1,286047000.0,N
1511893116.0,286047000.0,N
1511893135.8,286047001.0,N
1511893155.7,286046998.7,N
1511893175.5,286046998.9,N
1511893195.3,286046999.6,N
1511893215.2,286046999.4,N
1511893235.0,286046998.1,N
1511893235.9,286046998.1,N
1511893255.7,286047000.3,N
1511893275.6,286046999.7,N
1511893295.4,286047000.2,N
1511893315.3,286047001.1,N
1511893335.1,286047000.2,N
1511893336.0,286047000.2,N
1511893355.8,286047002.5,N
1511893375.7,286047002.3,N
1511893395.5,286047002.4,N
1511893415.4,286047002.4,N
1511893435.2,286047002.0,N
1511893455.0,286046999.8,N
1511893455.9,286046999.8,N
1511893475.8,286047002.1,N
1511893495.6,286047000.4,N
1511893515.4,286047002.2,N
1511893535.3,286047001.3,N
1511893555.1,286047002.0,N
1511893575.9,286046999.7,N
1511893595.7,286047002.8,N
1511893615.5,286047000.1,N
1511893635.4,286046999.9,N
1511893655.2,286047000.9,N
1511893675.0,286046998.2,N
1511893675.9,286046998.2,N
1511893695.8,286047000.6,N
1511893715.6,286046998.5,N
1511893735.5,286046998.7,N
1511893755.3,286047000.1,N
1511893775.1,286046999.7,N
1511893795.9,286047002.3,N
1511893815.7,286047002.7,N
1511893835.6,286047000.7,N
1511893855.4,286047000.5,N
1511893875.2,286047000.8,N
1511893895.1,286047000.3,N
1511893896.0,286047000.3,N
1511893915.8,286047000.9,N
1511893935.6,286046998.1,N
1511893955.5,286046999.9,N
1511893975.3,286046998.5,N
1511893995.2,286046996.9,N
1511894015.9,286046999.6,N
1511894035.7,286046996.6,N
1511894055.6,286046998.7,N
1511894075.4,286047001.2,N
1511894095.3,286047000.2,N
1511894115.1,286047000.6,N
1511894135.8,286046999.9,N
1511894155.7,286047000.9,N
1511894175.5,286046999.7,N
1511894195.4,286047002.1,N
1511894215.2,286047002.2,N
1511894235.0,286047000.2,N
1511894235.9,286047000.2,N
1511894255.8,286046999.8,N
1511894275.6,286047002.4,N
1511894295.4,286046999.9,N
1511894315.3,286047000.1,N
1511894335.1,286047000.5,N
1511894355.9,286047001.2,N
1511894375.7,286046998.9,N
1511894395.5,286046998.4,N
1511894415.4,286047000.7,N
1511894435.2,286047002.5,N
1511894455.0,286047004.4,Y
1511894455.9,286047004.4,P
1511894475.8,286047003.2,N
1511894495.6,286047003.7,N
1511894515.5,286047004.1,N
1511894535.3,286047003.5,N
1511894555.1,286047002.8,N
1511894575.9,286047002.6,N
1511894595.7,286047002.2,N
1511894615.6,286047001.6,N
1511894635.4,286046999.7,N
1511894655.2,286047000.3,N
1511894675.1,286047002.3,N
1511894676.0,286047002.3,N
1511894695.8,286047002.0,N
1511894715.6,286047004.4,Y
1511894735.5,286047001.1,P
1511894755.3,286046998.3,N
1511894775.2,286047000.4,N
1511894795.9,286047000.7,N
1511894815.7,286046998.5,N
1511894835.6,286047000.8,N
1511894855.4,286046998.9,N
1511894875.2,286046999.4,N
1511894895.1,286046997.0,N
1511894896.0,286046997.0,N
1511894915.8,286046999.3,N
1511894935.7,286046999.0,N
1511894955.5,286046998.8,N
1511894975.3,286046998.7,N
1511894995.2,286047000.9,N
1511895015.0,286047000.6,N
1511895015.9,286047000.6,N
1511895035.7,286046998.6,N
1511895055.6,286046998.9,N
1511895075.4,286046999.1,N
1511895095.3,286046997.7,N
1511895115.1,286046995.5,Y
1511895135.8,286046996.1,P
1511895155.7,286046995.5,N
1511895175.5,286046993.4,P
1511895195.4,286046996.4,N
1511895215.2,286046995.5,N
1511895235.0,286046995.9,N
1511895235.9,286046995.9,N
1511895255.8,286046993.7,Y
1511895275.6,286046998.7,P
1511895295.4,286046998.6,N
1511895315.3,286046998.1,N
1511895335.1,286047000.7,N
1511895355.9,286047000.7,N
1511895375.7,286046999.9,N
1511895395.5,286047000.8,N
1511895415.4,286047000.8,N
1511895435.2,286046998.6,N
1511895455.0,286046998.7,N
1511895455.9,286046998.7,N
1511895475.8,286046996.9,N
1511895495.6,286046999.6,N
1511895515.5,286046998.7,N
1511895535.3,286046999.1,N
1511895555.1,286046996.9,N
1511895575.9,286046997.7,N
1511895595.7,286046999.5,N
